EW8829 Weather Reports


time (UTC)temp
C
wind
direction
speed
KPH
gust
KPH
rain 1hr
cm
rain 24hr
cm
rain mn
cm
humidity
%
barometer
mb
20260902223320 22 156 0.0 4.8 0.00 0.43 0.43 95 1014.9
20260902222819 22 182 4.8 4.8 0.00 0.43 0.43 95 1014.6
20260902222318 22 154 3.2 8.0 0.00 0.43 0.43 96 1014.7
20260902221812 22 128 3.2 3.2 0.00 0.43 0.43 95 1014.9
20260902221312 22 153 1.6 16.1 0.00 0.43 0.43 96 1015.1
20260902220808 22 249 0.0 4.8 0.00 0.43 0.43 96 1015.1
20260902220307 22 132 4.8 9.7 0.00 0.43 0.43 96 1015.2
20260902215802 22 116 0.0 8.0 0.00 0.43 0.43 95 1015.5
20260902215257 22 59 1.6 8.0 0.00 0.43 0.43 95 1015.5
20260902214753 22 334 0.0 6.4 0.00 0.43 0.43 95 1015.3
20260902214252 22 117 0.0 6.4 0.00 0.43 0.43 97 1015.7
20260902213748 22 98 1.6 6.4 0.00 0.43 0.43 96 1015.7
20260902213248 22 184 1.6 3.2 0.00 0.43 0.43 97 1015.7
20260902212747 22 235 0.0 4.8 0.00 0.43 0.43 96 1015.8
20260902212244 22 236 0.0 3.2 0.00 0.43 0.43 96 1016.0
20260902211739 22 35 3.2 3.2 0.00 0.43 0.43 96 1015.7
20260902211235 22 97 0.0 4.8 0.00 0.43 0.43 96 1015.5
20260902210729 22 192 1.6 3.2 0.00 0.43 0.43 96 1016.0
20260902210224 22 204 4.8 11.3 0.00 0.43 0.43 95 1015.9
20260902205722 22 206 4.8 8.0 0.00 0.43 0.43 95 1015.9
20260902205218 22 240 4.8 14.5 0.00 0.43 0.43 95 1016.1
20260902204713 22 265 3.2 16.1 0.00 0.43 0.43 96 1016.2
20260902204208 22 257 6.4 6.4 0.00 0.43 0.43 96 1016.0
20260902203703 22 186 0.0 8.0 0.00 0.43 0.43 96 1015.7
20260902203158 22 207 0.0 9.7 0.00 0.43 0.43 96 1015.6
20260902202653 22 114 1.6 6.4 0.00 0.43 0.43 97 1015.6
20260902202150 22 58 1.6 3.2 0.00 0.43 0.43 96 1015.9
20260902201646 22 146 1.6 6.4 0.00 0.43 0.43 96 1015.7
20260902201144 22 132 0.0 6.4 0.00 0.43 0.43 97 1015.6
20260902200639 22 144 1.6 9.7 0.00 0.43 0.43 97 1015.9
20260902200136 22 141 6.4 9.7 0.00 0.43 0.43 97 1015.8
20260902195631 22 236 6.4 6.4 0.00 0.43 0.43 97 1016.1
20260902195130 22 214 0.0 6.4 0.00 0.43 0.43 98 1016.3
20260902194629 22 337 0.0 3.2 0.00 0.43 0.43 98 1016.6
20260902194124 22 346 3.2 4.8 0.00 0.43 0.43 97 1016.4
20260902193621 22 265 4.8 6.4 0.00 0.43 0.43 97 1016.3
20260902193120 22 238 4.8 6.4 0.00 0.43 0.43 97 1016.3
20260902192619 22 67 3.2 4.8 0.00 0.43 0.43 98 1016.5
20260902192118 22 209 1.6 3.2 0.00 0.43 0.43 98 1016.6
20260902191613 22 301 1.6 3.2 0.00 0.43 0.43 98 1016.6
20260902191107 22 227 0.0 4.8 0.00 0.43 0.43 97 1016.8
20260902190603 22 256 1.6 3.2 0.00 0.43 0.43 97 1016.7
20260902190058 22 269 0.0 3.2 0.00 0.43 0.43 97 1016.7
20260902185554 22 139 3.2 6.4 0.00 0.43 0.43 97 1016.7
20260902185050 22 146 0.0 3.2 0.00 0.43 0.43 98 1016.6
20260902184544 21 315 0.0 0.0 0.00 0.43 0.43 98 1016.6
20260902184040 21 330 3.2 3.2 0.00 0.43 0.43 99 1016.4
20260902183537 21 252 0.0 3.2 0.00 0.43 0.43 98 1016.6
20260902183033 21 335 3.2 4.8 0.00 0.43 0.43 98 1016.5
20260902182528 21 112 4.8 6.4 0.00 0.43 0.43 98 1016.5
20260902182024 21 225 3.2 6.4 0.00 0.43 0.43 98 1016.6
20260902181520 21 106 4.8 6.4 0.00 0.43 0.43 98 1016.5
20260902181014 21 252 1.6 4.8 0.00 0.43 0.43 99 1016.7
20260902180514 21 165 1.6 8.0 0.00 0.43 0.43 98 1016.8
20260902180010 21 218 3.2 6.4 0.00 0.43 0.43 97 1017.0
20260902175505 21 256 3.2 6.4 0.00 0.43 0.43 98 1017.0
20260902175001 21 303 3.2 12.9 0.00 0.43 0.43 97 1017.2
20260902174457 22 131 3.2 4.8 0.00 0.43 0.43 98 1017.2
20260902173952 21 248 4.8 6.4 0.00 0.43 0.43 98 1017.2
20260902173452 22 64 3.2 3.2 0.00 0.43 0.43 99 1017.3
20260902172947 21 159 3.2 4.8 0.00 0.43 0.43 99 1017.3
20260902172446 21 211 1.6 3.2 0.00 0.43 0.43 99 1017.4
20260902171942 21 234 3.2 6.4 0.00 0.43 0.43 99 1017.5
20260902171437 21 243 4.8 6.4 0.00 0.43 0.43 99 1017.6
20260902170933 21 97 4.8 9.7 0.00 0.43 0.43 99 1017.6
20260902170428 21 82 3.2 6.4 0.00 0.43 0.43 99 1017.6
20260902165924 21 291 1.6 4.8 0.00 0.43 0.43 99 1017.7
20260902165422 21 103 6.4 8.0 0.00 0.43 0.43 99 1017.5
20260902164918 21 115 3.2 6.4 0.00 0.43 0.43 99 1017.6
20260902164418 21 76 0.0 3.2 0.00 0.43 0.43 99 1017.5
20260902163917 21 61 3.2 3.2 0.00 0.43 0.43 99 1017.7
20260902163413 22 15 3.2 3.2 0.00 0.43 0.43 99 1017.5
20260902162910 22 88 3.2 9.7 0.00 0.43 0.43 99 1017.7
20260902162406 22 37 0.0 1.6 0.00 0.43 0.43 99 1017.8
20260902161905 22 66 1.6 3.2 0.00 0.43 0.43 99 1017.6
20260902161400 22 57 1.6 3.2 0.00 0.43 0.43 99 1017.6
20260902160857 22 4 0.0 3.2 0.00 0.43 0.43 99 1017.7
20260902160352 21 269 0.0 3.2 0.00 0.43 0.43 99 1017.2
20260902155850 21 198 0.0 4.8 0.00 0.43 0.43 99 1017.4
20260902155349 21 194 0.0 6.4 0.00 0.43 0.43 99 1017.3
20260902154844 21 215 0.0 6.4 0.05 0.43 0.43 99 1017.2
20260902154340 21 22 0.0 3.2 0.30 0.43 0.43 99 1017.1
20260902153839 21 89 0.0 3.2 0.43 0.41 0.41 99 1017.3
20260902153338 21 54 0.0 3.2 0.18 0.38 0.38 99 1017.3
20260902152834 21 62 3.2 4.8 0.13 0.33 0.33 99 1017.2
20260902152330 21 136 0.0 3.2 0.30 0.33 0.33 99 1017.3
20260902151825 21 10 0.0 1.6 0.43 0.33 0.33 99 1017.3
20260902151320 21 5 3.2 3.2 0.36 0.28 0.28 99 1017.5
20260902150815 21 133 1.6 4.8 0.30 0.25 0.25 99 1017.5
20260902150311 21 315 1.6 3.2 0.23 0.23 0.23 99 1017.5
20260902145810 21 95 1.6 3.2 0.05 0.20 0.20 99 1017.5
20260902145306 21 348 3.2 4.8 0.00 0.18 0.18 99 1017.5
20260902144801 21 171 0.0 4.8 0.05 0.18 0.18 99 1017.7
20260902144257 21 200 0.0 3.2 0.05 0.18 0.18 99 1017.5
20260902143752 21 89 0.0 1.6 0.18 0.18 0.18 99 1017.2
20260902143247 21 23 0.0 3.2 0.43 0.18 0.18 99 1017.3
20260902142742 21 6 1.6 3.2 0.43 0.15 0.15 99 1017.0
20260902142238 21 215 6.4 8.0 0.30 0.10 0.10 99 1017.2
20260902141738 21 310 4.8 8.0 0.18 0.08 0.08 99 1017.4
20260902141235 22 274 1.6 3.2 0.30 0.05 0.05 99 1017.2
20260902140734 22 194 1.6 4.8 0.23 0.05 0.05 99 1017.5
20260902140229 22 237 3.2 4.8 0.00 0.00 0.00 99 1017.3
20260902135729 22 121 0.0 3.2 0.00 0.00 0.00 99 1017.5
20260902135225 22 135 0.0 3.2 0.00 0.00 0.00 99 1017.8
20260902134724 22 163 1.6 4.8 0.00 0.00 0.00 99 1018.1
20260902134219 22 236 3.2 6.4 0.00 0.00 0.00 99 1018.0
20260902133715 21 192 1.6 8.0 0.00 0.00 0.00 99 1017.8
20260902133214 21 291 4.8 4.8 0.00 0.00 0.00 99 1018.0
20260902132709 21 269 0.0 9.7 0.00 0.00 0.00 99 1017.6
20260902132204 21 23 0.0 3.2 0.00 0.00 0.00 99 1017.3
20260902131700 21 240 4.8 14.5 0.00 0.00 0.00 99 1016.8
20260902131156 21 255 6.4 6.4 0.00 0.00 0.00 99 1017.6
20260902130651 21 293 3.2 4.8 0.00 0.00 0.00 99 1017.4
20260902130147 21 269 0.0 3.2 0.00 0.00 0.00 99 1017.0
20260902125642 21 349 0.0 4.8 0.00 0.00 0.00 99 1017.2
20260902125138 21 133 0.0 3.2 0.00 0.00 0.00 99 1017.1
20260902124634 21 251 0.0 4.8 0.00 0.00 0.00 99 1017.2
20260902124134 21 50 0.0 3.2 0.00 0.00 0.00 99 1017.3
20260902123631 20 302 0.0 3.2 0.00 0.00 0.00 99 1017.4
20260902123130 20 320 4.8 4.8 0.00 0.00 0.00 99 1017.3
20260902122625 20 342 3.2 3.2 0.00 0.00 0.00 99 1017.0
20260902122121 20 15 0.0 1.6 0.00 0.00 0.00 99 1016.9
20260902121620 20 116 0.0 1.6 0.00 0.00 0.00 99 1016.8
20260902121116 20 129 0.0 1.6 0.00 0.00 0.00 99 1016.9
20260902120612 20 71 1.6 1.6 0.00 0.00 0.00 99 1016.9
20260902120109 20 73 1.6 1.6 0.00 0.00 0.00 99 1016.7
20260902115603 20 348 1.6 3.2 0.00 0.00 0.00 99 1016.9
20260902115059 20 58 1.6 1.6 0.00 0.00 0.00 99 1016.7
20260902114554 20 10 1.6 3.2 0.00 0.00 0.00 99 1016.6
20260902114054 20 124 0.0 0.0 0.00 0.00 0.00 99 1016.4
20260902113550 20 50 0.0 1.6 0.00 0.00 0.00 99 1016.7
20260902113044 20 269 0.0 3.2 0.00 0.00 0.00 99 1016.8
20260902112540 19 299 0.0 3.2 0.00 0.00 0.00 99 1016.6
20260902112037 19 38 0.0 0.0 0.00 0.00 0.00 99 1016.7
20260902111533 19 19 0.0 0.0 0.00 0.00 0.00 99 1016.6
20260902111028 19 302 0.0 0.0 0.00 0.00 0.00 99 1016.4
20260902110524 19 296 0.0 3.2 0.00 0.00 0.00 99 1016.5
20260902110019 19 261 1.6 1.6 0.00 0.00 0.00 99 1016.4
20260902105514 19 310 0.0 1.6 0.00 0.00 0.00 99 1016.6
20260902105013 19 309 1.6 3.2 0.00 0.00 0.00 99 1016.6
20260902104509 19 289 0.0 1.6 0.00 0.00 0.00 99 1016.8
20260902104004 19 50 0.0 0.0 0.00 0.00 0.00 99 1016.5
20260902103459 19 50 0.0 0.0 0.00 0.00 0.00 99 1016.9
20260902102954 19 66 0.0 0.0 0.00 0.00 0.00 99 1016.8
20260902102451 19 0 0.0 0.0 0.00 0.00 0.00 99 1016.9
20260902101947 19 275 0.0 1.6 0.00 0.00 0.00 99 1016.9
20260902101442 19 309 0.0 1.6 0.00 0.00 0.00 99 1016.9
20260902100941 19 235 0.0 0.0 0.00 0.00 0.00 99 1016.8
20260902100436 19 76 0.0 1.6 0.00 0.00 0.00 99 1016.8
20260902095936 19 60 0.0 1.6 0.00 0.00 0.00 99 1017.0
20260902095430 20 104 0.0 1.6 0.00 0.00 0.00 99 1016.9
20260902094930 20 37 0.0 1.6 0.00 0.00 0.00 99 1016.8
20260902094426 20 64 0.0 0.0 0.00 0.00 0.00 99 1017.0
20260902093920 20 54 0.0 1.6 0.00 0.00 0.00 99 1016.9
20260902093415 20 254 0.0 1.6 0.00 0.00 0.00 99 1016.7
20260902092914 20 269 0.0 1.6 0.00 0.00 0.00 99 1016.8
20260902092410 20 299 0.0 3.2 0.00 0.00 0.00 99 1016.6
20260902091904 20 113 0.0 1.6 0.00 0.00 0.00 99 1016.6
20260902091359 20 69 0.0 0.0 0.00 0.00 0.00 99 1016.9
20260902090856 20 69 0.0 0.0 0.00 0.00 0.00 99 1016.7
20260902090356 20 126 0.0 1.6 0.00 0.00 0.00 99 1016.6
20260902085854 20 113 0.0 0.0 0.00 0.00 0.00 99 1017.0
20260902085350 20 113 0.0 0.0 0.00 0.00 0.00 99 1016.9
20260902084846 20 89 1.6 1.6 0.00 0.00 0.00 99 1016.9
20260902084342 20 89 0.0 1.6 0.00 0.00 0.00 99 1017.0
20260902083837 20 50 0.0 0.0 0.00 0.00 0.00 99 1017.1
20260902083337 20 287 0.0 1.6 0.00 0.00 0.00 99 1016.9
20260902082832 20 230 0.0 0.0 0.00 0.00 0.00 99 1017.0
20260902082328 20 142 0.0 3.2 0.00 0.00 0.00 99 1016.9
20260902081824 20 142 0.0 0.0 0.00 0.00 0.00 99 1016.6
20260902081320 20 269 0.0 0.0 0.00 0.00 0.00 99 1016.6
20260902080815 20 269 0.0 0.0 0.00 0.00 0.00 99 1016.4
20260902080312 20 89 0.0 0.0 0.00 0.00 0.00 99 1016.5
20260902075811 20 89 0.0 0.0 0.00 0.00 0.00 99 1016.7
20260902075308 20 89 0.0 0.0 0.00 0.00 0.00 99 1016.7
20260902074808 20 190 0.0 3.2 0.00 0.00 0.00 99 1016.6
20260902074303 20 264 1.6 3.2 0.00 0.00 0.00 99 1016.6
20260902073758 20 217 0.0 1.6 0.00 0.00 0.00 99 1016.5
20260902073254 20 116 0.0 1.6 0.00 0.00 0.00 99 1016.6
20260902072750 20 36 0.0 1.6 0.00 0.00 0.00 99 1016.7
20260902072245 20 37 0.0 0.0 0.00 0.00 0.00 99 1016.7
20260902071742 20 50 0.0 1.6 0.00 0.00 0.00 99 1016.6
20260902071236 20 314 3.2 3.2 0.00 0.00 0.00 99 1016.6
20260902070733 20 296 0.0 3.2 0.00 0.00 0.00 99 1016.4
20260902070232 19 214 0.0 3.2 0.00 0.00 0.00 99 1016.6
20260902065731 20 134 0.0 1.6 0.00 0.00 0.00 99 1016.8
20260902065227 20 148 0.0 1.6 0.00 0.00 0.00 99 1016.7
20260902064722 20 137 3.2 3.2 0.00 0.00 0.00 99 1016.8
20260902064218 20 173 0.0 0.0 0.00 0.00 0.00 99 1017.0
20260902063714 20 129 0.0 0.0 0.00 0.00 0.00 99 1016.9
20260902063208 20 197 0.0 0.0 0.00 0.00 0.00 99 1016.7
20260902062707 20 229 0.0 1.6 0.00 0.00 0.00 99 1016.7
20260902062202 20 44 0.0 0.0 0.00 0.00 0.00 99 1016.7
20260902061701 20 113 0.0 0.0 0.00 0.00 0.00 99 1016.6
20260902061157 20 322 0.0 1.6 0.00 0.00 0.00 99 1016.9
20260902060653 20 246 0.0 3.2 0.00 0.00 0.00 99 1016.8
20260902060149 20 322 0.0 0.0 0.00 0.00 0.00 99 1016.7
20260902055645 20 15 0.0 0.0 0.00 0.00 0.00 99 1016.8
20260902055140 20 15 0.0 0.0 0.00 0.00 0.00 99 1016.9
20260902054635 20 156 0.0 0.0 0.00 0.00 0.00 99 1016.9
20260902054131 20 322 0.0 0.0 0.00 0.00 0.00 99 1016.7
20260902053626 20 15 0.0 1.6 0.00 0.00 0.00 99 1016.8
20260902053121 20 193 0.0 3.2 0.00 0.00 0.00 99 1016.8
20260902052621 21 352 0.0 0.0 0.00 0.00 0.00 99 1016.6
20260902052117 21 352 0.0 0.0 0.00 0.00 0.00 99 1016.7
20260902051616 21 50 0.0 0.0 0.00 0.00 0.00 99 1016.6
20260902051115 21 0 0.0 3.2 0.00 0.00 0.00 99 1016.8
20260902050609 21 265 1.6 1.6 0.00 0.00 0.00 99 1016.6
20260902050105 21 50 0.0 0.0 0.00 0.00 0.00 99 1016.7
20260902045600 21 50 0.0 0.0 0.00 0.00 0.00 99 1016.7
20260902045056 21 142 0.0 0.0 0.00 0.00 0.00 99 1016.5
20260902044551 21 50 0.0 0.0 0.00 0.00 0.00 99 1016.7
20260902044046 21 66 0.0 1.6 0.00 0.00 0.00 99 1016.3
20260902043542 21 24 0.0 1.6 0.00 0.00 0.00 99 1016.5
20260902043036 21 309 0.0 3.2 0.00 0.00 0.00 99 1016.3
20260902042536 20 259 3.2 3.2 0.00 0.00 0.00 99 1016.5
20260902042031 20 310 0.0 1.6 0.00 0.00 0.00 99 1016.2
20260902041525 20 316 0.0 1.6 0.00 0.00 0.00 99 1016.1
20260902041020 20 37 0.0 0.0 0.00 0.00 0.00 99 1016.3
20260902040521 20 15 0.0 1.6 0.00 0.00 0.00 99 1016.2
20260902040020 20 308 1.6 3.2 0.00 0.00 0.00 99 1016.2
20260902035514 21 72 0.0 0.0 0.00 2.59 2.59 99 1016.2
20260902035015 21 217 0.0 0.0 0.00 2.59 2.59 99 1016.1
20260902034509 21 147 0.0 1.6 0.00 2.59 2.59 99 1016.2
20260902034008 21 265 1.6 3.2 0.00 2.59 2.59 99 1016.2
20260902033507 21 307 0.0 1.6 0.00 2.59 2.59 99 1015.9
20260902033008 21 117 0.0 0.0 0.00 2.59 2.59 99 1015.8
20260902032501 21 246 0.0 3.2 0.00 2.59 2.59 99 1016.0
20260902031956 21 294 3.2 3.2 0.00 2.59 2.59 99 1016.1
20260902031446 21 89 0.0 0.0 0.00 2.59 2.59 99 1016.0
20260902030943 21 31 0.0 1.6 0.00 2.59 2.59 99 1015.9
20260902030442 21 314 3.2 3.2 0.00 2.59 2.59 99 1015.7
20260902025940 21 6 3.2 3.2 0.00 2.59 2.59 99 1015.8
20260902025436 21 19 0.0 1.6 0.00 2.59 2.59 99 1015.8
20260902024931 21 22 1.6 3.2 0.00 2.59 2.59 99 1015.8
20260902024427 21 53 0.0 3.2 0.00 2.59 2.59 99 1015.7
20260902023922 21 324 0.0 1.6 0.00 2.59 2.59 99 1015.5
20260902023418 21 336 0.0 0.0 0.00 2.59 2.59 99 1015.8
20260902022917 21 341 0.0 1.6 0.00 2.59 2.59 99 1015.7
20260902022412 21 318 1.6 1.6 0.00 2.59 2.59 99 1015.7
20260902021908 21 89 1.6 3.2 0.00 2.59 2.59 99 1015.9
20260902021407 21 315 0.0 1.6 0.00 2.59 2.59 99 1015.8
20260902020903 21 259 1.6 1.6 0.00 2.59 2.59 99 1015.9
20260902020359 21 44 0.0 0.0 0.00 2.59 2.59 99 1015.7
20260902015855 21 44 0.0 0.0 0.00 2.59 2.59 99 1015.7
20260902015349 21 44 0.0 1.6 0.00 2.59 2.59 99 1015.4
20260902014846 21 92 3.2 3.2 0.00 2.59 2.59 99 1015.8
20260902014342 21 19 1.6 3.2 0.00 2.59 2.59 99 1015.6
20260902013841 21 15 1.6 3.2 0.00 2.59 2.59 99 1015.6
20260902013336 21 39 0.0 1.6 0.00 2.59 2.59 99 1015.4
20260902012832 21 230 0.0 0.0 0.00 2.59 2.59 99 1015.4
20260902012328 21 269 0.0 3.2 0.00 2.59 2.59 99 1015.7
20260902011823 21 297 0.0 0.0 0.00 2.59 2.59 99 1015.5
20260902011318 21 50 0.0 0.0 0.00 2.59 2.59 99 1015.3
20260902010817 21 60 0.0 0.0 0.00 2.59 2.59 99 1015.4
20260902010312 21 50 0.0 0.0 0.00 2.59 2.59 99 1015.3
20260902005811 21 50 0.0 0.0 0.00 2.59 2.59 99 1015.2
20260902005306 21 62 0.0 1.6 0.00 2.59 2.59 99 1015.1
20260902004801 22 256 0.0 1.6 0.00 2.59 2.59 99 1015.0
20260902004256 21 293 1.6 3.2 0.00 2.59 2.59 99 1014.7
20260902003750 22 37 0.0 1.6 0.00 2.59 2.59 99 1014.9
20260902003246 22 62 0.0 1.6 0.00 2.59 2.59 99 1014.6
20260902002742 22 304 0.0 0.0 0.00 2.59 2.59 99 1014.6
20260902002241 22 242 0.0 0.0 0.00 2.59 2.59 99 1014.4
20260902001737 22 17 0.0 0.0 0.00 2.59 2.59 99 1014.4
20260902001237 22 32 0.0 1.6 0.00 2.59 2.59 99 1014.3
20260902000731 22 50 0.0 0.0 0.00 2.59 2.59 99 1014.4
20260902000226 22 37 0.0 1.6 0.00 2.59 2.59 99 1014.3
20260901235721 22 12 1.6 1.6 0.00 2.59 2.59 99 1014.3
20260901235217 22 19 0.0 1.6 0.00 2.59 2.59 99 1014.2
20260901234715 22 309 0.0 0.0 0.00 2.59 2.59 99 1014.3
20260901234210 22 297 0.0 0.0 0.00 2.59 2.59 99 1014.4
20260901233710 22 343 0.0 0.0 0.00 2.59 2.59 99 1014.3
20260901233206 22 322 0.0 0.0 0.00 2.59 2.59 99 1014.4
20260901232701 22 304 0.0 0.0 0.00 2.59 2.59 99 1014.5
20260901232156 22 286 0.0 1.6 0.00 2.59 2.59 99 1014.4
20260901231653 22 303 3.2 3.2 0.00 2.59 2.59 99 1014.1
20260901231149 22 317 0.0 1.6 0.00 2.59 2.59 99 1014.2
20260901230644 23 318 1.6 1.6 0.00 2.59 2.59 99 1013.8
20260901230144 23 355 0.0 3.2 0.00 2.59 2.59 99 1014.1
20260901225639 23 308 0.0 3.2 0.00 2.59 2.59 99 1014.1
20260901225134 23 299 3.2 3.2 0.00 2.59 2.59 99 1014.0
20260901224630 23 297 3.2 4.8 0.00 2.59 2.59 99 1014.1
20260901224126 23 294 3.2 4.8 0.00 2.59 2.59 99 1014.1
20260901223620 23 275 1.6 3.2 0.00 2.59 2.59 98 1013.9